Stations météo

Publicité
Durham, Grande-Bretagne (99049): Température de l'air & dewpoint: 12.02.2020 18:00:00 - 18.02.2020 18:00:00 (GMT)Durham, Grande-Bretagne (99049): Température de l'air -20cm & Température de l'air -100cm: 12.02.2020 18:00:00 - 18.02.2020 18:00:00 (GMT)Durham, Grande-Bretagne (99049): Quantités de précipitations: 12.02.2020 18:00:00 - 18.02.2020 18:00:00 (GMT)
Date & Time tt [°C] td [°C] tt -20cm [°C] tt -100cm [°C] rr [mm]
18.02.2020 18:00:00 3,2 0,6 - - 0,0
18.02.2020 17:00:00 5,7 0,4 - - 0,0
18.02.2020 16:00:00 6,6 0,9 - - 0,0
18.02.2020 15:00:00 6,5 2,8 - - 0,0
18.02.2020 14:00:00 5,1 2,8 - - 0,6
18.02.2020 13:00:00 5,9 2,9 - - 0,0
18.02.2020 12:00:00 7,4 1,7 - - 0,0
18.02.2020 11:00:00 6,5 2,2 - - 0,0
18.02.2020 10:00:00 5,2 2,4 - - 0,0
18.02.2020 09:00:00 5,4 1,2 5,2 6,2 0,0
18.02.2020 08:00:00 3,8 1,4 - - 0,0
18.02.2020 07:00:00 4,3 0,7 - - 0,0
18.02.2020 06:00:00 3,8 0,5 - - -
18.02.2020 05:00:00 3,7 0,9 - - 0,0
18.02.2020 04:00:00 3,8 0,4 - - 0,0
18.02.2020 03:00:00 4,0 0,4 - - 0,0
18.02.2020 02:00:00 4,4 -0,6 - - 0,0
18.02.2020 01:00:00 4,8 0,2 - - 0,0
18.02.2020 00:00:00 4,5 0,3 - - 0,0
17.02.2020 23:00:00 3,8 0,6 - - 0,0
17.02.2020 22:00:00 4,2 -0,5 - - 0,0
17.02.2020 21:00:00 3,4 0,3 - - 0,2
17.02.2020 20:00:00 4,3 -0,1 - - 0,0
17.02.2020 19:00:00 4,3 0,8 - - 0,2
17.02.2020 18:00:00 6,0 0,2 - - 0,0
17.02.2020 17:00:00 7,2 1,8 - - 0,0
17.02.2020 16:00:00 8,0 1,0 - - 0,0
17.02.2020 15:00:00 8,4 2,1 - - 0,0
17.02.2020 14:00:00 9,2 1,7 - - 0,0
17.02.2020 13:00:00 9,0 3,1 - - 0,0
17.02.2020 12:00:00 9,0 3,4 - - 0,0
17.02.2020 11:00:00 8,3 2,6 - - 0,0
17.02.2020 10:00:00 7,7 2,8 - - 0,0
17.02.2020 09:00:00 6,5 2,9 5,4 6,2 0,0
17.02.2020 08:00:00 5,9 2,3 - - 0,0
17.02.2020 07:00:00 5,6 2,2 - - 0,0
17.02.2020 06:00:00 5,3 2,0 - - 0,0
17.02.2020 05:00:00 5,6 1,2 - - 0,0
17.02.2020 04:00:00 5,9 0,8 - - 0,0
17.02.2020 03:00:00 5,8 0,5 - - 0,0
17.02.2020 02:00:00 5,4 0,3 - - 0,0
17.02.2020 01:00:00 5,7 0,2 - - 0,0
17.02.2020 00:00:00 5,4 0,4 - - 0,4
16.02.2020 23:00:00 4,4 1,7 - - 0,4
16.02.2020 22:00:00 5,4 1,1 - - 0,0
16.02.2020 21:00:00 5,6 0,7 - - 0,0
16.02.2020 20:00:00 5,0 1,3 - - 0,0
16.02.2020 19:00:00 5,1 1,2 - - 0,8
16.02.2020 18:00:00 4,4 2,4 - - 0,6
16.02.2020 17:00:00 7,1 0,2 - - 0,0
16.02.2020 16:00:00 7,6 -0,1 - - 0,0
16.02.2020 15:00:00 8,0 0,6 - - 0,0
16.02.2020 14:00:00 8,2 0,4 - - 0,0
16.02.2020 13:00:00 7,4 0,6 - - 0,0
16.02.2020 12:00:00 7,0 0,2 - - 0,0
16.02.2020 11:00:00 6,9 0,9 - - 0,0
16.02.2020 10:00:00 6,4 1,1 - - 0,0
16.02.2020 09:00:00 5,9 1,7 5,5 6,0 0,0
16.02.2020 08:00:00 5,4 2,2 - - 0,0
16.02.2020 07:00:00 6,1 3,6 - - 0,4
16.02.2020 06:00:00 7,3 5,7 - - 1,2
16.02.2020 05:00:00 6,2 4,1 - - 2,0
16.02.2020 04:00:00 8,3 5,8 - - 1,0
16.02.2020 03:00:00 8,8 7,1 - - 0,8
16.02.2020 02:00:00 7,8 7,0 - - 2,4
16.02.2020 01:00:00 6,5 5,3 - - 3,4
16.02.2020 00:00:00 7,8 4,8 - - 0,4
15.02.2020 23:00:00 9,2 5,0 - - 0,0
15.02.2020 22:00:00 8,4 5,6 - - 0,0
15.02.2020 21:00:00 8,8 6,4 - - 0,4
15.02.2020 20:00:00 8,3 5,7 - - 0,8
15.02.2020 19:00:00 8,2 7,0 - - 6,8
15.02.2020 18:00:00 10,7 9,2 - - 1,0
15.02.2020 17:00:00 10,8 8,3 - - 0,2
15.02.2020 16:00:00 10,8 8,4 - - 0,0
15.02.2020 15:00:00 11,0 8,3 - - 0,0
15.02.2020 14:00:00 10,8 8,1 - - 0,2
15.02.2020 13:00:00 10,9 7,9 - - 0,4
15.02.2020 12:00:00 9,1 8,5 - - 0,6
15.02.2020 11:00:00 8,4 7,8 - - 0,0
15.02.2020 10:00:00 7,2 6,6 - - 0,0
15.02.2020 09:00:00 6,9 6,0 4,7 6,2 0,0
15.02.2020 08:00:00 4,9 4,0 - - 0,0
15.02.2020 07:00:00 5,0 3,7 - - 0,0
15.02.2020 06:00:00 4,7 3,4 - - 0,0
15.02.2020 05:00:00 4,5 3,2 - - 0,0
15.02.2020 04:00:00 4,1 2,7 - - 0,0
15.02.2020 03:00:00 4,9 3,5 - - 0,0
15.02.2020 02:00:00 5,6 4,0 - - 0,0
15.02.2020 01:00:00 6,2 3,8 - - 0,0
15.02.2020 00:00:00 6,6 4,0 - - 0,0
14.02.2020 23:00:00 6,8 4,8 - - 0,0
14.02.2020 22:00:00 6,9 4,3 - - 0,0
14.02.2020 21:00:00 7,3 4,0 - - 0,0
14.02.2020 20:00:00 8,4 4,0 - - 0,0
14.02.2020 19:00:00 9,1 5,7 - - 0,0
14.02.2020 18:00:00 8,6 6,0 - - 0,0
14.02.2020 17:00:00 8,9 6,2 - - 0,0
14.02.2020 16:00:00 8,4 6,3 - - 0,0
14.02.2020 15:00:00 8,2 6,4 - - 0,2
14.02.2020 14:00:00 8,8 5,8 - - 0,0
14.02.2020 13:00:00 7,0 3,8 - - 0,0
14.02.2020 12:00:00 6,6 2,8 - - 0,0
14.02.2020 11:00:00 4,0 2,3 - - 0,0
14.02.2020 10:00:00 3,4 1,8 - - 0,0
14.02.2020 09:00:00 3,3 1,7 4,7 6,2 0,0
14.02.2020 08:00:00 3,0 1,7 - - 0,0
14.02.2020 07:00:00 3,1 2,1 - - 0,0
14.02.2020 06:00:00 2,2 1,8 - - 0,0
14.02.2020 05:00:00 2,0 1,7 - - 0,0
14.02.2020 04:00:00 2,0 1,7 - - 0,0
14.02.2020 03:00:00 2,1 1,7 - - 0,0
14.02.2020 02:00:00 2,9 2,5 - - 0,0
14.02.2020 01:00:00 3,7 3,2 - - 0,0
14.02.2020 00:00:00 4,3 3,8 - - 0,0
13.02.2020 23:00:00 4,3 3,8 - - 0,0
13.02.2020 22:00:00 4,4 3,9 - - 0,2
13.02.2020 21:00:00 4,8 4,4 - - 0,0
13.02.2020 20:00:00 4,7 4,3 - - 0,0
13.02.2020 19:00:00 4,4 3,8 - - 0,0
13.02.2020 18:00:00 4,5 4,0 - - 0,0
13.02.2020 17:00:00 4,6 4,1 - - 0,2
13.02.2020 16:00:00 4,7 4,2 - - 0,0
13.02.2020 15:00:00 4,9 4,4 - - 0,4
13.02.2020 14:00:00 4,4 3,8 - - 0,2
13.02.2020 13:00:00 4,2 3,9 - - 0,0
13.02.2020 12:00:00 3,1 2,7 - - 0,2
13.02.2020 11:00:00 3,0 2,6 - - 0,4
13.02.2020 10:00:00 2,7 2,4 - - 0,4
13.02.2020 09:00:00 1,9 1,5 4,5 6,2 0,6
13.02.2020 08:00:00 1,5 1,0 - - 0,8
13.02.2020 07:00:00 1,8 1,2 - - 2,0
13.02.2020 06:00:00 2,0 1,3 - - 1,8
13.02.2020 05:00:00 2,3 1,4 - - 0,4
13.02.2020 04:00:00 2,3 0,7 - - 0,0
13.02.2020 03:00:00 0,9 -1,0 - - 0,0
13.02.2020 02:00:00 1,2 -0,8 - - 0,0
13.02.2020 01:00:00 1,0 -0,6 - - 0,0
13.02.2020 00:00:00 0,6 -0,8 - - 0,0
12.02.2020 23:00:00 0,4 -1,5 - - 0,0
12.02.2020 22:00:00 1,1 -1,6 - - 0,0
12.02.2020 21:00:00 1,1 -1,9 - - 0,0
12.02.2020 20:00:00 1,8 -2,3 - - 0,0
12.02.2020 19:00:00 2,4 -2,6 - - 0,0
12.02.2020 18:00:00 3,3 -2,3 - - 0,0

tt = Température de l'air
td = dewpoint
tt -20cm = Température de l'air -20cm
tt -100cm = Température de l'air -100cm
rr = Quantités de précipitations

stations d'obs. à proximité